FW9021 Weather Reports


time (UTC)temp
C
wind
direction
speed
KPH
gust
KPH
rain 1hr
cm
rain 24hr
cm
rain mn
cm
humidity
%
barometer
mb
20260506081038 20 271 4.8 9.7 0.00 0.00 0.00 73 1011.5
20260506080542 20 274 1.6 17.7 0.00 0.00 0.00 72 1011.4
20260506073102 20 257 12.9 37.0 0.00 0.00 0.00 70 1011.7
20260506072543 20 223 14.5 35.4 0.00 0.00 0.00 70 1011.7
20260506072041 20 189 14.5 30.6 0.00 0.00 0.00 70 1011.7
20260506071551 20 234 11.3 37.0 0.00 0.00 0.00 70 1011.5
20260506071042 20 267 16.1 37.0 0.00 0.00 0.00 70 1011.7
20260506070540 20 222 16.1 35.4 0.00 0.00 0.00 69 1011.7
20260506062040 20 262 3.2 32.2 0.00 0.00 0.00 63 1012.0
20260506061544 20 271 11.3 32.2 0.00 0.00 0.00 65 1012.1
20260506061040 20 264 8.0 17.7 0.00 0.00 0.00 64 1012.4
20260506060541 20 232 9.7 29.0 0.00 0.00 0.00 63 1012.5
20260506051041 20 261 0.0 6.4 0.00 0.00 0.00 58 1012.7
20260506050540 20 312 3.2 9.7 0.00 0.00 0.00 59 1012.6
20260506050106 20 205 3.2 11.3 0.00 0.00 0.00 57 1012.8
20260506045040 20 298 3.2 11.3 0.00 0.00 0.00 57 1012.5
20260506044552 20 228 4.8 11.3 0.00 0.00 0.00 58 1012.6
20260506044041 20 336 3.2 11.3 0.00 0.00 0.00 56 1012.7
20260506043540 20 115 3.2 11.3 0.00 0.00 0.00 58 1013.0
20260506043049 20 228 4.8 11.3 0.00 0.00 0.00 59 1012.9
20260506042540 20 219 3.2 9.7 0.00 0.00 0.00 60 1012.7
20260506042040 20 0 3.2 16.1 0.00 0.00 0.00 58 1012.8
20260506041553 20 269 4.8 16.1 0.00 0.00 0.00 57 1012.7
20260506041040 20 234 4.8 12.9 0.00 0.00 0.00 58 1012.6
20260506040540 20 315 0.0 11.3 0.00 0.00 0.00 58 1012.4
20260506040050 20 256 3.2 11.3 0.00 0.00 0.00 57 1012.4
20260506035540 20 273 0.0 11.3 0.00 0.00 0.00 57 1012.4
20260506035041 20 0 0.0 11.3 0.00 0.00 0.00 57 1012.6
20260506034549 20 0 1.6 11.3 0.00 0.00 0.00 58 1012.9
20260506034038 20 198 1.6 11.3 0.00 0.00 0.00 55 1012.8
20260506033538 20 146 1.6 9.7 0.00 0.00 0.00 58 1012.8
20260506033049 20 0 3.2 9.7 0.00 0.00 0.00 57 1012.9
20260506032538 20 316 1.6 4.8 0.00 0.00 0.00 56 1013.0
20260506032038 20 43 0.0 3.2 0.00 0.00 0.00 56 1013.0
20260506031552 20 38 0.0 3.2 0.00 0.00 0.00 57 1013.0
20260506031040 20 0 0.0 3.2 0.00 0.00 0.00 57 1013.1
20260506030540 20 174 0.0 4.8 0.00 0.00 0.00 60 1013.1
20260506030057 20 0 0.0 4.8 0.00 0.00 0.00 57 1013.0
20260506025538 20 177 1.6 4.8 0.00 0.00 0.00 57 1012.9
20260506025042 20 157 0.0 3.2 0.00 0.00 0.00 57 1013.0
20260506024559 20 157 0.0 3.2 0.00 0.00 0.00 57 1012.9
20260506024038 20 0 0.0 3.2 0.00 0.00 0.00 59 1012.9
20260506023539 19 109 0.0 3.2 0.00 0.00 0.00 59 1012.8
20260506023044 19 46 0.0 3.2 0.00 0.00 0.00 60 1012.9
20260506022538 20 0 0.0 3.2 0.00 0.00 0.00 59 1012.8
20260506022038 19 0 0.0 3.2 0.00 0.00 0.00 60 1012.8
20260506021556 19 0 1.6 3.2 0.00 0.00 0.00 60 1012.8
20260506021038 19 0 0.0 3.2 0.00 0.00 0.00 60 1012.8
20260506020538 19 0 0.0 3.2 0.00 0.00 0.00 60 1012.8
20260506020047 19 0 0.0 4.8 0.00 0.00 0.00 60 1012.8
20260506015538 19 352 0.0 4.8 0.00 0.00 0.00 60 1012.7
20260506015038 19 326 1.6 4.8 0.00 0.00 0.00 62 1012.7
20260506014545 18 0 1.6 4.8 0.00 0.00 0.00 61 1012.5
20260506014038 18 0 1.6 4.8 0.00 0.00 0.00 60 1012.6
20260506013538 18 92 1.6 4.8 0.00 0.00 0.00 62 1012.5
20260506013048 18 50 1.6 4.8 0.00 0.00 0.00 63 1012.3
20260506012538 18 131 1.6 4.8 0.00 0.00 0.00 63 1012.4
20260506012038 18 131 1.6 4.8 0.00 0.00 0.00 62 1012.4
20260506011615 19 134 1.6 4.8 0.00 0.00 0.00 61 1012.2
20260506011038 19 134 0.0 4.8 0.00 0.00 0.00 60 1012.2
20260506010538 19 0 1.6 4.8 0.00 0.00 0.00 59 1012.3
20260506010048 19 134 1.6 3.2 0.00 0.00 0.00 59 1012.3
20260506005538 20 134 0.0 3.2 0.00 0.00 0.00 58 1012.4
20260506005043 20 134 0.0 3.2 0.00 0.00 0.00 57 1012.3
20260506004551 20 134 0.0 3.2 0.00 0.00 0.00 57 1012.4
20260506004038 20 134 0.0 3.2 0.00 0.00 0.00 56 1012.3
20260506003539 20 0 0.0 3.2 0.00 0.00 0.00 56 1012.3
20260506003051 20 0 0.0 4.8 0.00 0.00 0.00 55 1012.3
20260506002538 21 0 0.0 4.8 0.00 0.00 0.00 54 1012.4
20260506002038 21 76 0.0 4.8 0.00 0.00 0.00 53 1012.7
20260506001557 21 0 1.6 4.8 0.00 0.00 0.00 52 1012.5
20260506001038 21 282 0.0 4.8 0.00 0.00 0.00 53 1012.4
20260506000538 21 0 1.6 4.8 0.00 0.00 0.00 51 1012.4
20260506000057 21 0 0.0 4.8 0.00 0.00 0.00 52 1012.5
20260505235538 21 107 0.0 6.4 0.00 0.00 0.00 52 1012.4
20260505235038 21 252 3.2 11.3 0.00 0.00 0.00 51 1012.4
20260505234546 21 304 3.2 11.3 0.00 0.00 0.00 50 1012.2
20260505234042 21 275 4.8 11.3 0.00 0.00 0.00 52 1012.1
20260505233538 20 261 1.6 11.3 0.00 0.00 0.00 54 1012.1
20260505233048 20 227 1.6 4.8 0.00 0.00 0.00 56 1012.0
20260505232538 20 9 0.0 4.8 0.00 0.00 0.00 57 1011.8
20260505232039 20 90 1.6 4.8 0.00 0.00 0.00 55 1011.8
20260505231549 20 70 1.6 6.4 0.00 0.00 0.00 57 1011.9
20260505231038 21 234 0.0 6.4 0.00 0.00 0.00 55 1012.1
20260505230538 21 102 1.6 11.3 0.00 0.00 0.00 55 1012.1
20260505230059 21 0 1.6 11.3 0.00 0.00 0.00 52 1012.2
20260505225543 21 279 4.8 11.3 0.00 0.00 0.00 52 1012.4
20260505225038 21 294 3.2 9.7 0.00 0.00 0.00 53 1012.2
20260505224550 21 239 4.8 9.7 0.00 0.00 0.00 51 1012.1
20260505224039 21 298 3.2 9.7 0.00 0.00 0.00 52 1012.1
20260505223545 21 294 1.6 6.4 0.00 0.00 0.00 48 1012.5
20260505223052 22 284 1.6 9.7 0.00 0.00 0.00 49 1012.6
20260505222538 22 248 1.6 11.3 0.00 0.00 0.00 50 1012.8
20260505222038 22 266 3.2 16.1 0.00 0.00 0.00 47 1012.8
20260505221601 22 246 8.0 17.7 0.00 0.00 0.00 47 1012.9
20260505221039 22 240 8.0 19.3 0.00 0.00 0.00 46 1012.9
20260505220539 22 252 8.0 19.3 0.00 0.00 0.00 44 1012.8
20260505220100 22 248 9.7 19.3 0.00 0.00 0.00 44 1012.8
20260505215541 22 232 8.0 16.1 0.00 0.00 0.00 44 1012.7
20260505215038 22 259 6.4 16.1 0.00 0.00 0.00 45 1012.7
20260505214553 22 231 8.0 17.7 0.00 0.00 0.00 45 1012.7
20260505214039 22 278 6.4 19.3 0.00 0.00 0.00 44 1012.7
20260505213539 22 244 9.7 19.3 0.00 0.00 0.00 45 1012.5
20260505213049 22 273 9.7 19.3 0.00 0.00 0.00 44 1012.2
20260505212538 22 300 8.0 25.7 0.00 0.00 0.00 43 1012.1
20260505212038 22 264 11.3 25.7 0.00 0.00 0.00 42 1012.3
20260505211551 23 269 12.9 24.1 0.00 0.00 0.00 44 1012.4
20260505211041 23 286 6.4 20.9 0.00 0.00 0.00 41 1012.4
20260505210538 23 266 9.7 20.9 0.00 0.00 0.00 44 1012.4
20260505210053 23 265 6.4 20.9 0.00 0.00 0.00 44 1012.5
20260505205538 23 297 11.3 20.9 0.00 0.00 0.00 45 1012.3
20260505205040 23 274 11.3 20.9 0.00 0.00 0.00 44 1012.2
20260505204557 23 289 11.3 20.9 0.00 0.00 0.00 46 1012.3
20260505204041 23 261 8.0 24.1 0.00 0.00 0.00 45 1012.3
20260505203540 23 259 9.7 24.1 0.00 0.00 0.00 45 1012.5
20260505203050 23 281 8.0 22.5 0.00 0.00 0.00 43 1012.5
20260505202539 23 248 12.9 22.5 0.00 0.00 0.00 42 1012.5
20260505202038 23 269 12.9 24.1 0.00 0.00 0.00 41 1012.4
20260505201550 23 296 12.9 24.1 0.00 0.00 0.00 44 1012.3
20260505201039 23 269 11.3 24.1 0.00 0.00 0.00 44 1012.2
20260505200538 22 266 11.3 19.3 0.00 0.00 0.00 46 1012.4
20260505200048 23 278 8.0 20.9 0.00 0.00 0.00 46 1012.4
20260505195538 22 254 12.9 20.9 0.00 0.00 0.00 46 1012.7
20260505195038 22 314 11.3 27.4 0.00 0.00 0.00 45 1012.8
20260505194558 22 261 14.5 27.4 0.00 0.00 0.00 46 1012.8
20260505194040 22 263 11.3 19.3 0.00 0.00 0.00 48 1012.7
20260505193539 22 342 11.3 17.7 0.00 0.00 0.00 46 1012.9
20260505193046 22 211 8.0 16.1 0.00 0.00 0.00 47 1012.9
20260505192538 22 227 4.8 16.1 0.00 0.00 0.00 47 1012.9
20260505192041 22 306 9.7 22.5 0.00 0.00 0.00 47 1012.9
20260505191543 22 300 12.9 25.7 0.00 0.00 0.00 48 1013.1
20260505191038 22 276 14.5 25.7 0.00 0.00 0.00 48 1013.3
20260505190539 22 345 11.3 22.5 0.00 0.00 0.00 47 1013.5
20260505190043 22 233 11.3 20.9 0.00 0.00 0.00 48 1013.6
20260505185539 22 266 11.3 24.1 0.00 0.00 0.00 47 1013.6
20260505185043 22 264 11.3 24.1 0.00 0.00 0.00 45 1013.8
20260505184552 22 222 9.7 22.5 0.00 0.00 0.00 45 1013.7
20260505184041 22 254 9.7 22.5 0.00 0.00 0.00 47 1013.7
20260505183543 22 254 9.7 22.5 0.00 0.00 0.00 46 1013.7
20260505183052 22 267 11.3 22.5 0.00 0.00 0.00 45 1013.9
20260505182538 22 269 9.7 22.5 0.00 0.00 0.00 44 1013.8
20260505182038 22 250 14.5 22.5 0.00 0.00 0.00 46 1013.9
20260505181544 22 238 11.3 19.3 0.00 0.00 0.00 43 1013.8
20260505181042 22 342 9.7 19.3 0.00 0.00 0.00 45 1014.0
20260505180538 22 254 9.7 19.3 0.00 0.00 0.00 46 1013.9
20260505180052 22 298 11.3 22.5 0.00 0.00 0.00 45 1014.0
20260505175541 22 285 11.3 29.0 0.00 0.00 0.00 44 1014.1
20260505175041 22 262 17.7 29.0 0.00 0.00 0.00 44 1014.4
20260505174551 22 269 17.7 25.7 0.00 0.00 0.00 44 1014.3
20260505174039 22 253 14.5 25.7 0.00 0.00 0.00 42 1014.4
20260505173539 22 257 8.0 22.5 0.00 0.00 0.00 43 1014.5
20260505173045 21 261 12.9 24.1 0.00 0.00 0.00 41 1014.6
20260505172540 21 287 11.3 24.1 0.00 0.00 0.00 42 1014.7
20260505172041 21 245 12.9 24.1 0.00 0.00 0.00 46 1014.8
20260505171549 21 239 9.7 19.3 0.00 0.00 0.00 43 1014.8
20260505171040 21 259 6.4 17.7 0.00 0.00 0.00 43 1014.9
20260505170541 21 259 9.7 17.7 0.00 0.00 0.00 40 1014.9
20260505170051 21 178 9.7 17.7 0.00 0.00 0.00 41 1014.9
20260505165540 21 268 9.7 22.5 0.00 0.00 0.00 41 1014.8
20260505165040 21 281 4.8 22.5 0.00 0.00 0.00 43 1014.6
20260505164558 21 278 8.0 22.5 0.00 0.00 0.00 42 1014.6
20260505164041 21 281 8.0 24.1 0.00 0.00 0.00 40 1014.6
20260505163540 21 332 9.7 24.1 0.00 0.00 0.00 38 1014.9
20260505163048 21 297 8.0 24.1 0.00 0.00 0.00 41 1014.9
20260505162539 20 257 9.7 25.7 0.00 0.00 0.00 43 1015.2
20260505162040 20 264 8.0 29.0 0.00 0.00 0.00 48 1015.2
20260505161555 20 265 17.7 30.6 0.00 0.00 0.00 50 1015.2
20260505161042 20 259 16.1 30.6 0.00 0.00 0.00 49 1015.2
20260505160540 20 241 14.5 25.7 0.00 0.00 0.00 51 1015.2
20260505153104 20 296 12.9 41.8 0.00 0.00 0.00 57 1015.2
20260505152543 19 240 20.9 41.8 0.00 0.00 0.00 58 1015.3
20260505152039 19 228 17.7 33.8 0.00 0.00 0.00 56 1015.3
20260505151553 19 240 11.3 22.5 0.00 0.00 0.00 59 1015.3
20260505151040 18 207 4.8 12.9 0.00 0.00 0.00 59 1015.4
20260505150540 18 259 1.6 6.4 0.00 0.00 0.00 60 1015.5
20260505140542 16 246 3.2 6.4 0.00 0.00 0.00 68 1015.4
20260505125038 12 64 0.0 4.8 0.00 0.00 0.00 82 1014.8
20260505124606 12 0 1.6 4.8 0.00 0.00 0.00 83 1014.7
20260505124038 12 77 1.6 4.8 0.00 0.00 0.00 84 1014.8
20260505123537 12 0 1.6 4.8 0.00 0.00 0.00 86 1014.7
20260505123058 12 0 0.0 4.8 0.00 0.00 0.00 87 1014.8
20260505122538 11 0 0.0 4.8 0.00 0.00 0.00 87 1014.9
20260505122038 11 0 1.6 4.8 0.00 0.00 0.00 87 1014.6
20260505121549 11 27 1.6 4.8 0.00 0.00 0.00 87 1014.6
20260505121039 11 0 0.0 3.2 0.00 0.00 0.00 88 1014.6
20260505120539 10 46 0.0 3.2 0.00 0.00 0.00 88 1014.7
20260505120100 10 0 0.0 3.2 0.00 0.00 0.00 88 1014.6
20260505115538 10 64 0.0 3.2 0.00 0.00 0.00 88 1014.6
20260505115041 10 64 0.0 3.2 0.00 0.00 0.00 88 1014.5
20260505114545 9 0 0.0 3.2 0.00 0.00 0.00 88 1014.5
20260505114038 9 0 0.0 3.2 0.00 0.00 0.00 88 1014.6
20260505113539 9 0 0.0 3.2 0.00 0.00 0.00 88 1014.4
20260505113110 9 64 0.0 3.2 0.00 0.00 0.00 88 1014.3
20260505112540 9 37 0.0 4.8 0.00 0.00 0.00 88 1014.3
20260505112040 9 0 0.0 6.4 0.00 0.00 0.00 88 1014.2
20260505111553 9 34 3.2 6.4 0.00 0.00 0.00 88 1014.2
20260505111043 9 28 3.2 6.4 0.00 0.00 0.00 88 1014.3
20260505110540 9 0 0.0 3.2 0.00 0.00 0.00 88 1014.1
20260505102040 10 0 0.0 4.8 0.00 0.00 0.00 87 1013.9
20260505101557 10 0 0.0 4.8 0.00 0.00 0.00 87 1013.8
20260505101043 10 75 1.6 4.8 0.00 0.00 0.00 87 1013.9
20260505100542 10 0 1.6 6.4 0.00 0.00 0.00 87 1014.0
20260505100050 10 5 0.0 8.0 0.00 0.00 0.00 86 1014.0
20260505095540 10 50 0.0 8.0 0.00 0.00 0.00 86 1013.9
20260505095041 10 0 3.2 8.0 0.00 0.00 0.00 86 1013.8
20260505094549 10 26 1.6 8.0 0.00 0.00 0.00 86 1013.9
20260505094040 10 0 1.6 8.0 0.00 0.00 0.00 85 1013.9
20260505093540 10 20 1.6 4.8 0.00 0.00 0.00 85 1014.0
20260505093103 10 109 1.6 4.8 0.00 0.00 0.00 86 1013.9
20260505092541 10 30 0.0 6.4 0.00 0.00 0.00 85 1014.0
20260505092041 10 0 1.6 6.4 0.00 0.00 0.00 85 1013.9
20260505091550 10 33 1.6 4.8 0.00 0.00 0.00 84 1013.9
20260505091041 10 0 1.6 4.8 0.00 0.00 0.00 84 1013.9
20260505090540 10 57 0.0 3.2 0.00 0.00 0.00 84 1013.9
20260505090050 10 0 0.0 3.2 0.00 0.00 0.00 84 1014.1
20260505085540 10 57 0.0 3.2 0.00 0.00 0.00 84 1014.0
20260505085040 11 0 0.0 3.2 0.00 0.00 0.00 84 1014.0
20260505084555 11 0 0.0 4.8 0.00 0.00 0.00 85 1013.9
20260505084040 11 0 1.6 4.8 0.00 0.00 0.00 84 1014.0
20260505083539 11 20 0.0 4.8 0.00 0.00 0.00 84 1013.9
20260505083054 11 75 1.6 4.8 0.00 0.00 0.00 84 1014.0
20260505082540 11 0 0.0 6.4 0.00 0.00 0.00 83 1014.1
20260505082040 11 42 3.2 6.4 0.00 0.00 0.00 83 1014.1
20260505081553 11 31 0.0 6.4 0.00 0.00 0.00 83 1014.1